RH
24 84 100 100 100 100 96 98 98 98 97 97 96 97 96 96 94 82 66 55 42 34 30 28 27 28 25 23 20 19 16 20 23 18 16 15 12 11 10 8 7 7 11 35 45
48 39 37 100 100 100 97 98 98 98 97 100 98 96 96 95 94 95 85 55 43 38 36 33 31 30 28 28 26 22 21 24 27 23 20 17 16 14 12 11 12 12 7 9 29
74 66 98 100 100 100 98 88 99 98 98 98 98 96 95 96 95 94 77 54 48 46 41 38 35 34 34 30 28 25 24 24 27 24 20 18 17 17 15 16 21 13 10 6 5
84 94 96 100 100 100 95 88 98 98 99 99 96 93 91 89 86 80 79 81 65 58 52 47 42 37 27 22 22 22 34 31 38 29 25 25 30 33 28 27 21 19 15 15 11
75 65 99 100 99 100 86 96 98 98 100 96 95 88 88 92 92 90 84 75 67 58 48 38 26 19 20 23 24 32 52 48 40 25 22 22 22 23 23 24 23 23 21 19 19
97 78 86 100 98 93 79 96 98 100 98 93 93 92 92 85 81 69 60 50 34 23 17 16 20 22 24 34 44 64 55 31 22 32 30 23 30 15 15 15 16 16 18 19 22
69 68 89 89 69 90 90 100 100 93 95 88 92 86 78 68 61 51 34 23 14 14 18 22 25 28 39 66 60 28 15 30 30 33 37 49 47 20 21 28 30 32 35 22 14
73 77 98 67 67 100 99 93 80 85 82 88 80 70 51 44 32 23 16 13 15 20 27 29 36 66 67 35 15 19 30 34 34 38 43 65 62 33 33 40 48 44 43 35 33
52 62 49 77 88 96 82 70 68 74 66 82 42 23 19 14 12 12 15 20 29 38 51 42 28 17 12 13 18 28 31 32 37 41 52 58 55 35 32 34 37 42 31 25 22
43 48 54 74 84 82 74 73 72 79 52 22 17 14 12 12 13 8 8 9 9 10 10 10 10 11 13 15 22 27 33 32 40 38 49 56 50 37 31 36 38 42 48 48 26
56 90 59 82 67 67 68 74 50 26 12 14 8 12 12 8 7 6 6 7 7 8 10 10 13 12 11 11 12 15 19 24 35 40 35 43 41 40 30 34 38 41 52 52 31
46 57 59 52 51 48 42 36 20 14 10 10 11 9 6 6 7 7 8 9 10 11 13 16 19 20 21 20 18 14 13 14 16 24 33 39 37 29 25 28 37 44 55 37 42
16 15 18 16 17 18 20 21 16 14 11 9 6 6 7 8 9 9 10 10 11 14 25 31 28 22 26 33 32 32 26 18 12 14 13 16 22 16 20 30 41 56 46 51 53
14 12 11 13 15 16 14 12 10 11 7 7 7 7 8 8 9 10 9 10 11 18 36 44 54 62 28 33 41 42 31 24 19 15 10 9 10 14 22 35 50 57 59 62 78
11 10 9 6 6 7 8 9 9 8 7 8 8 8 9 10 10 10 9 10 12 18 40 66 69 92 87 35 60 100 45 26 29 16 12 9 8 16 28 41 58 72 93 76 98
5 7 8 12 9 8 7 7 7 7 8 8 9 9 10 10 11 10 10 10 11 15 35 54 68 52 84 44 37 40 51 42 28 16 11 10 13 20 32 64 71 74 93 86 92
5 5 6 6 6 7 6 6 6 7 8 9 9 9 9 10 11 11 10 10 11 12 20 39 59 62 66 51 27 30 33 29 32 21 18 29 22 30 43 94 94 90 96 98 96
4 4 5 5 6 6 7 7 7 8 8 8 9 8 9 10 10 11 10 10 10 11 13 16 27 59 61 81 80 47 70 55 46 57 51 40 60 60 86 99 87 94 96 98 98
4 4 4 5 5 6 6 7 7 7 7 8 8 8 8 9 10 11 11 11 11 11 12 13 16 24 45 46 72 78 75 60 47 55 54 62 90 82 92 96 96 98 98 98 98
5 5 5 5 6 6 7 8 8 9 10 9 9 8 8 8 8 9 10 11 12 11 11 11 12 12 15 22 36 44 49 49 30 34 52 81 69 62 73 72 84 97 99 98 96
4 4 5 5 6 7 10 13 12 11 10 10 10 10 9 8 8 8 8 10 11 12 12 12 11 11 10 9 12 22 32 34 33 30 41 60 57 50 40 60 78 85 96 93 92
5 5 5 5 7 8 11 12 13 12 12 12 12 12 11 9 8 8 7 9 11 12 13 12 12 12 11 10 10 9 7 11 24 16 28 45 43 43 33 34 54 76 80 72 79
6 5 5 5 5 6 9 11 12 11 12 12 13 13 11 11 10 8 8 8 9 10 12 13 13 12 12 11 10 9 9 8 6 5 10 12 16 22 22 22 26 52 57 67 80
14 12 9 7 6 6 6 9 12 12 14 14 14 14 13 12 11 10 9 8 8 9 10 11 12 14 13 13 11 9 8 8 9 10 8 5 4 5 15 21 21 22 41 52 63
14 15 16 17 16 17 14 10 11 12 14 14 15 14 13 13 12 11 10 8 8 8 9 10 10 11 13 12 12 11 10 9 9 9 9 10 10 7 4 5 12 18 17 29 47
13 13 14 16 18 18 19 21 20 20 17 16 16 16 16 16 14 13 12 9 8 8 9 8 10 10 10 10 10 9 7 7 8 8 9 10 10 10 9 6 4 5 12 15 19
11 13 15 14 14 16 18 21 24 24 26 24 22 18 17 18 18 17 15 14 11 9 9 9 8 10 10 9 9 9 7 6 5 6 6 8 9 10 9 9 9 6 4 7 10
Wind_Speed
34 51 44 46 37 43 57 53 49 48 45 43 43 43 41 39 32 30 29 31 31 31 31 33 35 37 39 40 42 45 45 45 47 48 50 51 51 53 55 54 52 51 54 57 58
39 34 43 34 30 31 38 45 41 42 41 37 36 35 33 32 30 29 25 26 28 26 26 30 35 38 39 42 43 43 46 46 47 48 45 46 48 51 51 54 52 54 56 59 60
29 25 22 29 24 27 30 34 36 34 33 31 31 28 27 26 23 20 20 22 22 22 24 28 35 38 41 42 42 42 42 43 44 44 43 44 45 47 49 49 54 56 56 60 61
24 21 18 11 22 24 22 24 29 29 26 26 24 19 17 23 19 19 16 17 20 23 26 31 37 40 43 40 39 37 38 38 41 42 41 42 43 46 49 52 56 55 57 58 60
23 12 8 10 17 22 15 12 21 23 23 21 16 13 16 17 16 17 14 15 21 25 28 31 35 35 33 34 33 33 35 38 38 35 38 40 44 46 50 51 54 54 55 57 60
18 9 10 18 19 21 11 13 20 23 21 15 14 12 11 11 9 7 7 11 17 22 27 29 27 28 30 30 30 29 34 34 28 21 20 23 25 43 47 49 54 56 60 61 61
16 15 21 26 23 24 19 24 27 24 19 17 15 17 14 8 6 3 6 13 20 22 22 22 25 27 28 28 28 31 28 31 27 23 16 12 18 19 14 18 19 23 26 36 56
26 25 34 35 27 31 42 36 33 33 30 23 24 18 14 11 4 3 11 13 14 15 19 23 25 26 26 29 27 26 28 32 31 25 18 15 18 14 18 21 23 27 27 27 28
36 41 41 37 39 41 40 39 37 37 35 29 27 19 14 7 5 5 4 8 13 17 20 24 27 29 30 27 28 30 30 31 34 29 24 20 16 15 17 18 14 17 23 27 28
58 43 42 39 46 42 43 45 45 40 38 30 22 16 14 15 16 13 5 6 12 18 21 23 25 26 29 31 32 32 31 31 30 33 27 24 20 18 20 23 21 19 21 26 31
63 57 55 53 54 52 50 46 45 39 33 27 23 23 25 22 18 13 7 11 17 22 26 29 30 31 28 30 32 37 38 35 33 34 31 29 25 22 26 26 27 24 23 26 31
66 66 60 58 56 55 52 46 40 34 30 33 33 30 29 22 14 11 11 18 24 29 31 31 32 32 32 32 31 33 31 31 30 32 32 28 26 26 28 25 26 24 20 20 23
62 62 57 54 51 47 44 40 39 38 39 38 35 28 22 18 14 16 19 23 30 33 26 20 21 21 24 29 30 30 33 30 26 24 25 24 25 28 27 19 21 19 11 12 20
62 67 65 56 48 45 46 46 47 44 39 32 28 23 20 18 19 19 24 30 32 30 25 24 24 22 15 11 12 18 27 25 24 22 19 17 20 27 21 19 22 16 17 17 10
64 63 65 68 63 57 53 48 43 38 36 29 25 22 18 18 21 23 27 33 36 32 28 27 30 27 26 17 10 12 7 20 18 17 16 16 20 23 19 19 18 15 16 11 15
63 57 55 51 50 49 45 43 39 36 32 26 22 19 18 19 23 26 30 34 37 37 31 31 36 34 27 25 17 9 7 15 17 17 17 19 20 18 14 13 19 19 20 5 12
51 53 48 45 43 42 40 35 32 31 28 23 22 21 21 22 24 27 31 35 39 42 37 34 33 35 39 33 25 21 17 18 17 18 16 12 8 9 10 10 12 10 13 6 11
42 41 43 40 38 35 34 31 27 27 25 23 23 24 23 23 25 27 32 36 40 43 43 40 35 31 33 35 34 27 22 13 11 10 5 2 1 2 5 5 9 12 7 7 11
34 33 33 34 32 30 28 27 26 25 23 22 22 23 24 25 27 29 32 35 39 43 45 44 40 35 29 27 26 25 21 17 12 8 6 5 4 6 4 3 6 14 5 16 6
25 25 26 27 26 26 24 21 20 20 19 19 20 21 23 25 27 29 32 35 37 40 43 45 44 44 39 32 26 23 20 19 12 7 4 2 6 8 9 10 7 8 8 9 13
16 18 19 21 20 21 20 16 17 18 18 19 19 19 20 22 25 27 30 31 34 37 39 42 45 46 47 47 34 24 17 15 13 7 2 3 4 7 9 9 10 6 6 11 15
9 11 12 13 15 17 17 17 18 18 18 18 20 20 20 20 21 24 25 28 30 32 35 37 40 41 42 43 45 44 37 21 10 5 4 8 9 11 10 9 8 3 7 8 12
11 10 10 11 12 13 16 16 17 18 19 19 18 18 19 19 20 21 22 23 25 27 30 32 34 35 35 37 39 40 40 42 37 24 9 9 14 17 13 10 8 7 5 3 6
13 13 12 13 14 15 15 16 16 16 15 16 16 17 19 20 20 19 20 19 20 21 23 27 29 31 32 33 34 35 36 37 37 37 35 30 19 11 17 15 11 9 9 4 2
15 14 14 16 17 18 17 16 18 19 20 20 20 20 19 19 20 19 18 17 17 17 18 20 23 26 27 29 29 31 33 33 33 33 34 35 36 34 17 7 14 12 11 9 7
16 17 15 14 16 20 20 20 19 20 21 21 20 20 19 19 20 20 19 18 16 15 15 14 15 18 22 24 25 26 29 30 31 31 32 32 34 36 37 33 10 9 16 14 12
23 21 20 19 18 18 20 19 20 21 22 21 22 21 21 21 20 20 20 19 18 16 15 13 12 12 13 16 19 19 22 25 26 27 29 31 32 34 36 37 37 32 8 12 18
Wind_Direction
293 265 265 255 248 249 242 237 238 234 235 238 240 242 243 238 230 232 241 247 246 246 247 250 256 264 266 269 271 271 273 268 265 261 258 255 254 256 257 257 256 253 250 242 239
300 285 265 253 250 234 247 236 230 232 231 233 238 238 241 239 228 227 231 241 245 248 253 260 264 269 273 273 273 273 271 267 265 264 260 257 255 255 256 257 256 252 250 246 239
307 303 249 249 234 223 237 235 226 224 227 227 228 233 241 236 224 220 227 237 246 254 261 267 269 273 277 276 275 273 266 263 258 257 256 253 254 255 255 252 250 250 249 249 242
319 308 242 212 204 210 222 231 214 211 219 214 220 228 232 225 208 214 219 235 258 273 274 275 275 279 279 276 269 262 257 256 255 254 252 251 250 249 250 247 248 248 249 250 251
330 308 223 168 172 191 199 206 199 193 199 205 205 211 215 212 204 221 240 260 265 268 272 276 277 275 271 266 261 257 258 257 255 260 258 256 254 252 255 255 257 256 255 253 252
9 22 201 130 151 159 151 145 159 163 188 180 179 191 182 178 188 216 243 265 276 278 278 274 271 267 262 262 260 257 256 256 256 247 253 253 254 250 255 255 257 257 253 252 251
41 62 122 125 134 139 119 125 136 138 145 134 134 146 140 160 172 205 278 290 285 280 274 273 266 262 263 263 264 262 248 253 237 238 241 251 261 255 251 257 261 267 263 256 254
54 89 106 112 105 105 108 112 117 118 120 132 128 117 117 118 111 305 292 288 280 278 274 268 269 268 263 266 258 253 252 243 232 240 245 259 266 261 262 270 270 264 265 259 262
73 98 100 106 120 117 114 110 112 117 114 121 112 106 97 82 46 14 341 292 288 282 279 276 274 274 269 263 257 253 243 233 240 240 243 243 260 270 273 272 277 261 264 263 260
87 89 106 108 111 115 107 109 106 110 110 105 94 84 86 84 90 86 61 311 295 291 291 291 289 281 270 261 254 255 251 240 237 244 239 240 252 267 278 275 286 275 282 272 264
71 83 91 95 106 107 107 106 102 102 94 90 84 99 103 99 87 68 23 332 324 319 314 308 301 287 280 269 261 255 252 246 243 243 247 243 248 259 271 275 283 288 286 269 264
78 85 90 94 99 100 100 98 99 97 94 105 110 106 92 88 77 47 7 346 333 327 319 312 303 296 286 276 267 261 254 252 246 244 243 249 260 264 265 268 281 289 285 264 262
76 78 79 80 83 86 91 95 93 100 109 109 101 101 96 79 58 29 7 352 347 344 346 359 341 313 293 281 272 263 253 245 241 242 243 243 249 254 261 273 285 306 293 269 269
79 85 86 83 82 85 91 97 101 100 103 103 99 92 81 66 47 27 17 9 3 2 17 21 16 17 6 331 288 261 259 245 235 232 229 230 234 248 252 273 298 315 287 291 277
83 86 90 93 94 95 97 99 100 101 98 96 89 81 68 52 43 31 23 22 15 17 28 30 21 22 27 27 41 9 231 221 215 209 205 221 237 245 255 285 288 306 334 250 323
86 87 89 93 95 97 98 99 100 98 94 90 82 72 60 47 39 34 29 30 27 25 31 38 35 36 33 34 42 55 119 156 162 179 188 217 236 241 259 293 303 297 327 346 325
83 85 84 85 88 91 92 90 92 89 89 84 77 68 57 47 41 37 33 30 33 33 37 37 41 43 48 51 54 69 96 124 141 160 188 218 234 249 261 312 337 325 341 355 28
79 80 82 80 80 79 80 81 77 74 71 67 62 54 50 47 43 38 39 33 35 36 38 41 45 44 45 50 58 71 66 82 115 124 146 127 52 307 286 311 356 4 342 12 42
74 74 72 73 75 74 70 69 62 60 59 57 53 48 42 39 37 35 36 38 36 37 39 41 48 50 47 46 53 55 58 64 73 82 80 119 43 14 334 34 32 40 58 87 93
70 67 66 67 66 65 61 55 52 52 52 48 44 41 38 37 35 33 36 38 36 37 41 43 45 47 51 49 53 55 56 63 66 85 84 91 26 6 10 11 344 336 98 96 87
53 53 60 53 48 54 54 48 39 34 33 31 30 33 31 30 31 31 30 34 37 37 39 42 45 46 47 49 48 50 53 58 64 77 45 287 312 330 341 337 336 310 49 353 6
32 27 34 42 36 32 39 33 25 24 20 18 17 16 18 22 23 26 30 31 34 33 36 41 43 45 47 48 49 51 53 51 43 44 246 268 283 289 303 307 310 335 267 10 6
344 347 356 359 4 10 12 14 16 12 10 8 6 7 7 10 10 16 21 27 30 33 32 33 42 44 48 48 49 47 47 54 55 51 12 291 276 281 292 286 293 290 293 336 51
312 317 320 324 326 338 345 349 347 350 353 353 353 357 360 1 3 7 12 17 22 26 31 32 33 38 42 46 50 49 46 44 46 47 47 43 29 315 285 286 283 275 273 251 173
322 321 313 310 311 313 314 319 324 333 336 341 342 348 348 353 354 356 1 6 8 13 19 27 31 33 34 41 44 50 48 46 43 43 41 38 41 41 32 295 271 262 258 254 230
304 314 319 323 319 309 304 305 309 313 314 324 325 330 332 337 340 345 348 349 354 359 2 8 20 29 34 32 38 43 47 44 44 42 44 42 36 36 43 45 34 255 245 248 241
296 296 303 306 309 309 309 314 306 300 301 304 309 312 316 319 326 329 332 335 337 341 345 351 350 7 20 32 29 33 44 45 44 43 46 42 40 39 39 43 48 54 57 246 248